"2009-01-22 00:00:00",561956,8.69,310.2,1.489,0.452,15.05,106.2102,15.17,16.13,8.55,0,110.6,13.29,15.98,272.2
"2009-01-22 00:00:30",561957,7.542,310.9,3.216,0.401,15.17,106.1845,15.11,16.1,8.53,0,110.6,13.29,15.91,272.9
"2009-01-22 00:01:00",561958,8.16,313.1,3.558,0.579,15.06,106.184,15.1,16.09,8.52,0,110.6,13.29,15.91,275.1
"2009-01-22 00:01:30",561959,8.52,311,4.681,0.382,15.34,106.1724,15.07,16.05,8.48,0,110.6,13.3,15.88,273.0
"2009-01-22 00:02:00",561960,8.27,301.8,1.766,0.237,15.15,106.1575,15.04,16.05,8.51,0,110.5,13.3,15.84,263.8
"2009-01-22 00:02:30",561961,7.948,303.6,2.892,0.347,15.07,106.1507,15.02,16.03,8.62,0,110.6,13.3,15.82,265.6
"2009-01-22 00:03:00",561962,9.57,306,2.245,0.447,15.28,106.1507,15.02,16,8.61,0,110.5,13.3,15.82,268.0
"2009-01-22 00:03:30",561963,9.55,304.6,2.318,0.526,15.36,106.1507,15.02,15.98,8.55,0,110.5,13.3,15.82,266.6
"2009-01-22 00:04:00",561964,9.63,303,3.025,0.514,15.32,106.1507,15.02,15.97,8.54,0,110.5,13.3,15.82,265.0
"2009-01-22 00:04:30",561965,9.06,302.1,3.822,0.253,15.33,106.1507,15.02,15.95,8.53,0,110.5,13.3,15.82,264.1
"2009-01-22 00:05:00",561966,8.1,308.2,2.724,0.562,15.28,106.1504,15.02,15.96,8.52,0,110.5,13.3,15.82,270.2
"2009-01-22 00:05:30",561967,7.685,312.8,3.089,0.515,15.21,106.1507,15.02,15.95,8.5,0,110.5,13.3,15.82,274.8
"2009-01-22 00:06:00",561968,8.51,309.3,4.449,0.299,15.05,106.1471,15.01,15.93,8.54,0,110.5,13.3,15.81,271.3
"2009-01-22 00:06:30",561969,7.816,308.4,5.299,0.585,15.24,106.122,14.95,15.94,8.57,0,110.5,13.3,15.75,270.4
"2009-01-22 00:07:00",561970,9.14,309.8,2.761,0.267,15.25,106.1311,14.97,15.92,8.59,0,110.5,13.3,15.77,271.8
"2009-01-22 00:07:30",561971,8.86,301.5,5.433,0.645,15.19,106.1315,14.97,15.92,8.56,0,110.5,13.3,15.77,263.5
"2009-01-22 00:08:00",561972,10.42,310.6,3.29,1.461,15.05,106.1228,14.95,15.91,8.54,0,110.5,13.3,15.75,272.6
"2009-01-22 00:08:30",561973,10.28,309,2.085,0.625,15.26,106.1256,14.95,15.9,8.46,0,110.5,13.31,15.76,271.0
"2009-01-22 00:09:00",561974,10.21,311.7,2.69,0.666,15.29,106.1259,14.96,15.91,8.37,0,110.5,13.31,15.76,273.7
"2009-01-22 00:09:30",561975,12.5,312.8,1.217,0.839,15.31,106.1313,14.97,15.9,8.27,0,110.5,13.31,15.77,274.8
"2009-01-22 00:10:00",561976,10.93,316.3,1.573,0.309,15.38,106.1355,14.98,15.91,8.21,0,110.5,13.31,15.78,278.3
"2009-01-22 00:10:30",561977,11.05,317,1.805,0.248,15.39,106.1511,15.02,15.91,8.08,0,110.5,13.31,15.82,279.0
"2009-01-22 00:11:00",561978,11.26,316.5,2.311,0.32,15.26,106.1683,15.06,15.93,8.04,0,110.5,13.31,15.87,278.5
"2009-01-22 00:11:30",561979,10.89,317.4,1.531,0.358,15.44,106.1819,15.1,15.94,7.948,0,110.5,13.31,15.90,279.4
"2009-01-22 00:12:00",561980,9.95,314.8,2.652,0.282,15.37,106.1863,15.11,15.94,7.891,0,110.5,13.31,15.91,276.8
"2009-01-22 00:12:30",561981,9.03,320.2,2.974,0.573,15.46,106.1863,15.11,15.96,7.959,0,110.5,13.3,15.91,282.2
"2009-01-22 00:13:00",561982,9.07,314.5,3.124,0.416,15.21,106.1891,15.12,15.97,8.05,0,110.5,13.3,15.92,276.5
"2009-01-22 00:13:30",561983,10.96,314.3,1.384,0.824,15.04,106.1877,15.11,15.99,8.1,0,110.5,13.3,15.92,276.3
"2009-01-22 00:14:00",561984,11.85,311.3,2.146,0.406,15.05,106.1866,15.11,15.98,8.21,0,110.5,13.3,15.92,273.3
"2009-01-22 00:14:30",561985,10.98,308.5,1.953,0.484,14.99,106.179,15.09,15.97,8.3,0,110.5,13.3,15.90,270.5
"2009-01-22 00:15:00",561986,11,308.2,2.186,0.357,15.04,106.1534,15.03,15.95,8.38,0,110.5,13.31,15.83,270.2
"2009-01-22 00:15:30",561987,10.42,313.2,3.189,0.531,15.26,106.1528,15.02,15.94,8.37,0,110.5,13.31,15.83,275.2
"2009-01-22 00:16:00",561988,10.38,311.9,3.004,0.941,15.2,106.1506,15.02,15.92,8.34,0,110.5,13.31,15.82,273.9
"2009-01-22 00:16:30",561989,9.86,312.1,2.937,0.527,15.21,106.1418,15,15.92,8.33,0,110.5,13.31,15.80,274.1
"2009-01-22 00:17:00",561990,8.89,301.9,3.856,0.441,15.26,106.1353,14.98,15.89,8.32,0,110.5,13.31,15.78,263.9
"2009-01-22 00:17:30",561991,9.45,304.5,2.197,0.513,15.26,106.1241,14.95,15.89,8.33,0,110.5,13.31,15.75,266.5
"2009-01-22 00:18:00",561992,10.56,303.8,5.254,0.545,15.19,106.119,14.94,15.89,8.38,0,110.5,13.31,15.74,265.8
"2009-01-22 00:18:30",561993,11.03,307.2,3.465,0.91,15.13,106.119,14.94,15.86,8.38,0,110.4,13.32,15.74,269.2
"2009-01-22 00:19:00",561994,10.65,305.2,5.59,0.996,15.3,106.119,14.94,15.86,8.41,0,110.4,13.32,15.74,267.2
"2009-01-22 00:19:30",561995,10.87,308,3.426,0.934,15.36,106.119,14.94,15.85,8.35,0,110.5,13.32,15.74,270.0
"2009-01-22 00:20:00",561996,11.49,305.7,2.267,0.748,15.32,106.119,14.94,15.85,8.36,0,110.5,13.32,15.74,267.7
"2009-01-22 00:20:30",561997,10.29,307.1,3.336,0.697,15.35,106.119,14.94,15.85,8.32,0,110.5,13.32,15.74,269.1
"2009-01-22 00:21:00",561998,10.35,304.5,3.311,0.249,15.33,106.119,14.94,15.86,8.29,0,110.5,13.32,15.74,266.5
"2009-01-22 00:21:30",561999,10.18,303.4,2.855,0.307,15.35,106.119,14.94,15.86,8.27,0,110.5,13.32,15.74,265.4
"2009-01-22 00:22:00",562000,11.12,305.9,2.247,0.608,15.33,106.1198,14.94,15.86,8.26,0,110.5,13.32,15.74,267.9
"2009-01-22 00:22:30",562001,10.64,310.8,2.36,0.566,15.31,106.1297,14.97,15.89,8.23,0,110.4,13.32,15.77,272.8
"2009-01-22 00:23:00",562002,10.74,312.3,2.421,0.462,15.3,106.1393,14.99,15.9,8.21,0,110.5,13.32,15.79,274.3
"2009-01-22 00:23:30",562003,10.24,308.4,3.446,0.362,15.33,106.141,14.99,15.89,8.19,0,110.4,13.33,15.80,270.4
"2009-01-22 00:24:00",562004,9.65,305.3,2.981,0.362,15.27,106.1438,15,15.91,8.23,0,110.4,13.33,15.81,267.3
"2009-01-22 00:24:30",562005,10.47,306.2,2.12,0.433,15.21,106.1488,15.01,15.91,8.27,0,110.4,13.33,15.82,268.2
"2009-01-22 00:25:00",562006,10.42,306.8,2.49,0.288,15.24,106.1451,15,15.9,8.29,0,110.4,13.33,15.81,268.8
"2009-01-22 00:25:30",562007,10.53,310.5,1.605,0.282,15.33,106.1452,15,15.91,8.31,0,110.4,13.33,15.81,272.5
"2009-01-22 00:26:00",562008,9.91,307.5,3.542,0.268,15.22,106.1505,15.02,15.92,8.31,0,110.4,13.33,15.82,269.5
"2009-01-22 00:26:30",562009,9.77,305.4,4.968,0.585,15.08,106.146,15.01,15.91,8.38,0,110.4,13.33,15.81,267.4
"2009-01-22 00:27:00",562010,9.22,303.2,1.581,0.29,15.34,106.1352,14.98,15.9,8.44,0,110.4,13.33,15.78,265.2
"2009-01-22 00:27:30",562011,9,308.5,2.308,0.359,15.21,106.139,14.99,15.91,8.46,0,110.4,13.33,15.79,270.5
"2009-01-22 00:28:00",562012,8.3,301.8,3.067,0.585,15.27,106.1348,14.98,15.92,8.44,0,110.4,13.33,15.78,263.8
"2009-01-22 00:28:30",562013,9.08,310.3,3.612,1.392,15.28,106.1387,14.99,15.91,8.48,0,110.4,13.32,15.79,272.3
"2009-01-22 00:29:00",562014,10.88,313.9,1.279,0.637,15.31,106.1423,15,15.91,8.36,0,110.4,13.32,15.80,275.9
"2009-01-22 00:29:30",562015,11.41,311,1.547,0.338,15.23,106.148,15.01,15.92,8.38,0,110.4,13.32,15.82,273.0
"2009-01-22 00:30:00",562016,10.7,311.6,1.416,0.199,15.05,106.1495,15.02,15.91,8.47,0,110.4,13.32,15.82,273.6
"2009-01-22 00:30:30",562017,10.6,310.3,1.095,0.21,14.94,106.1437,15,15.89,8.61,0,110.4,13.32,15.81,272.3
"2009-01-22 00:31:00",562018,11.62,313.8,1.351,0.263,15.06,106.1202,14.94,15.87,8.72,0,110.4,13.32,15.74,275.8
"2009-01-22 00:31:30",562019,12.04,312.7,1.095,0.298,15.19,106.1211,14.94,15.84,8.74,0,110.4,13.32,15.75,274.7
"2009-01-22 00:32:00",562020,11.79,311.7,0.592,0.393,15.22,106.1191,14.94,15.83,8.69,0,110.4,13.32,15.74,273.7
"2009-01-22 00:32:30",562021,12.62,311.8,1.448,0.309,15.18,106.1092,14.91,15.84,8.71,0,110.4,13.32,15.72,273.8
"2009-01-22 00:33:00",562022,12.77,312.4,1.037,0.139,15.14,106.0985,14.89,15.81,8.75,0,110.4,13.32,15.69,274.4
"2009-01-22 00:33:30",562023,12.65,311.1,1.019,0.161,15.06,106.0872,14.86,15.8,8.8,0,110.4,13.33,15.66,273.1
"2009-01-22 00:34:00",562024,12.5,310.1,1.366,0.208,14.97,106.0867,14.85,15.78,8.89,0,110.4,13.33,15.66,272.1
"2009-01-22 00:34:30",562025,11.82,309.7,1.108,0.33,15.07,106.0695,14.81,15.75,8.92,0,110.4,13.33,15.61,271.7
"2009-01-22 00:35:00",562026,11.53,305.2,2.355,0.403,15.19,106.054,14.77,15.74,8.89,0,110.4,13.33,15.57,267.2
"2009-01-22 00:35:30",562027,10.83,308.5,2.975,0.45,15.07,106.0534,14.77,15.73,8.87,0,110.4,13.33,15.57,270.5
"2009-01-22 00:36:00",562028,11.25,310.4,2.034,0.233,15.05,106.0534,14.77,15.72,8.91,0,110.4,13.33,15.57,272.4
"2009-01-22 00:36:30",562029,11.18,309.5,0.522,0.121,15.02,106.0529,14.77,15.71,8.98,0,110.4,13.33,15.57,271.5
"2009-01-22 00:37:00",562030,10.82,308.6,0.552,0.136,15.12,106.0458,14.75,15.69,9.01,0,110.4,13.33,15.55,270.6
"2009-01-22 00:37:30",562031,10.29,307.6,1.311,0.259,15.04,106.0374,14.73,15.69,9.01,0,110.4,13.33,15.53,269.6
"2009-01-22 00:38:00",562032,10.36,307.2,0.967,0.361,15.09,106.0199,14.68,15.65,9.04,0,110.4,13.33,15.49,269.2
"2009-01-22 00:38:30",562033,10.82,306.8,1.44,0.19,15.13,106.0196,14.68,15.63,9.02,0,110.4,13.33,15.49,268.8
"2009-01-22 00:39:00",562034,10.67,305.7,2.169,0.159,15.12,106.0196,14.68,15.63,9,0,110.4,13.34,15.49,267.7
"2009-01-22 00:39:30",562035,10.42,305.3,1.598,0.335,15.17,106.0196,14.68,15.63,8.97,0,110.4,13.34,15.49,267.3
"2009-01-22 00:40:00",562036,9.67,306.2,1.681,0.211,15.19,106.0196,14.68,15.62,8.91,0,110.4,13.34,15.49,268.2
"2009-01-22 00:40:30",562037,9.98,305.6,2.169,0.204,14.92,106.0196,14.68,15.63,8.96,0,110.4,13.34,15.49,267.6
"2009-01-22 00:41:00",562038,10.16,306.2,2.915,0.174,14.87,106.0188,14.68,15.61,9.08,0,110.4,13.34,15.48,268.2
"2009-01-22 00:41:30",562039,10.5,309.7,0.747,0.528,14.85,105.9957,14.62,15.58,9.19,0,110.4,13.3,15.42,271.7
"2009-01-22 00:42:00",562040,11.1,315,6.831,1.265,16.85,105.9858,14.6,15.7,9.34,0,110.4,13.3,15.40,277.0
"2009-01-22 00:42:30",562041,10.06,310.1,4.659,0.909,15.54,105.9858,14.6,15.68,9.37,0,110.4,13.3,15.40,272.1
"2009-01-22 00:43:00",562042,10.63,309.9,3.058,0.891,14.14,105.9779,14.58,15.54,9.25,0,110.4,13.3,15.38,271.9
"2009-01-22 00:43:30",562043,11.35,313.6,4.679,1.251,15.3,105.9542,14.52,15.68,9.52,0,110.4,13.3,15.32,275.6
"2009-01-22 00:44:00",562044,13.21,317.1,7.386,1.479,17.26,105.952,14.51,15.59,9.55,0,110.4,13.3,15.31,279.1
"2009-01-22 00:44:30",562045,10.87,306.4,3.045,0.763,14.44,105.9432,14.49,15.6,9.56,0,110.4,13.3,15.29,268.4
"2009-01-22 00:45:00",562046,11.63,313.5,5.012,1.252,15.48,105.9277,14.45,15.51,9.44,0,110.4,13.3,15.25,275.5
"2009-01-22 00:45:30",562047,10.77,310.8,1.88,0.276,13.51,105.9193,14.43,15.43,9.43,0,110.4,13.33,15.23,272.8
"2009-01-22 00:46:00",562048,11.88,311.8,0.723,0.467,13.85,105.9185,14.42,15.42,9.52,0,110.4,13.33,15.23,273.8
"2009-01-22 00:46:30",562049,11.98,311.3,1.108,0.278,14.03,105.9185,14.42,15.4,9.54,0,110.4,13.33,15.23,273.3
"2009-01-22 00:47:00",562050,11.93,310.2,1.302,0.257,14.33,105.9182,14.42,15.4,9.58,0,110.4,13.33,15.23,272.2
"2009-01-22 00:47:30",562051,12.17,311.6,1.073,0.287,14.64,105.9165,14.42,15.37,9.55,0,110.4,13.33,15.22,273.6
"2009-01-22 00:48:00",562052,11.92,312.6,1.076,0.32,14.78,105.9188,14.42,15.37,9.5,0,110.4,13.33,15.23,274.6
"2009-01-22 00:48:30",562053,12.04,312.6,1.489,0.238,14.75,105.9226,14.43,15.38,9.47,0,110.4,13.33,15.24,274.6
"2009-01-22 00:49:00",562054,12.92,316,6.576,1.315,16.71,105.9218,14.43,15.52,9.66,0,110.4,13.29,15.23,278.0
"2009-01-22 00:49:30",562055,13.28,316.8,7.537,1.496,16.58,105.919,14.43,15.49,9.72,0,110.4,13.3,15.23,278.8
"2009-01-22 00:50:00",562056,12.45,313.2,4.187,0.792,15.03,105.9177,14.42,15.48,9.73,0,110.3,13.3,15.22,275.2
"2009-01-22 00:50:30",562057,12.84,318.7,6.024,1.447,15.47,105.9101,14.4,15.4,9.65,0,110.4,13.3,15.20,280.7
"2009-01-22 00:51:00",562058,12.42,320.7,6.489,1.691,16.15,105.8978,14.37,15.42,9.71,0,110.4,13.3,15.17,282.7
"2009-01-22 00:51:30",562059,11.56,318.3,2.201,0.256,14.1,105.9005,14.38,15.32,9.6,0,110.4,13.34,15.18,280.3
"2009-01-22 00:52:00",562060,11.56,315.4,1.475,0.258,14.28,105.9022,14.38,15.31,9.56,0,110.4,13.34,15.18,277.4
"2009-01-22 00:52:30",562061,11.49,314.4,0.987,0.206,14.42,105.9043,14.39,15.3,9.56,0,110.4,13.34,15.19,276.4
"2009-01-22 00:53:00",562062,11.11,317,1.963,0.204,14.53,105.9082,14.4,15.3,9.58,0,110.4,13.34,15.20,279.0
"2009-01-22 00:53:30",562063,10.73,317.7,2.029,0.163,14.73,105.9073,14.4,15.31,9.56,0,110.4,13.34,15.20,279.7
"2009-01-22 00:54:00",562064,10.61,315.1,1.512,0.383,14.82,105.9103,14.4,15.3,9.52,0,110.4,13.34,15.21,277.1
"2009-01-22 00:54:30",562065,10.55,314.8,1.848,0.347,14.91,105.9156,14.42,15.3,9.47,0,110.4,13.34,15.22,276.8
"2009-01-22 00:55:00",562066,11.57,315.8,1.569,0.364,14.76,105.9159,14.42,15.3,9.48,0,110.4,13.34,15.22,277.8
"2009-01-22 00:55:30",562067,11.73,317.5,1.288,0.554,14.77,105.9178,14.42,15.37,9.6,0,110.4,13.34,15.22,279.5
"2009-01-22 00:56:00",562068,13.94,329.6,8.08,1.315,18.29,105.9187,14.42,15.59,9.86,0,110.4,13.31,15.23,291.6
"2009-01-22 00:56:30",562069,12.58,331.9,6.939,1.298,18.04,105.9199,14.43,15.59,9.78,0,110.4,13.31,15.23,293.9
"2009-01-22 00:57:00",562070,12.59,321.6,7.538,1.063,14.91,105.9199,14.43,15.46,9.63,0,110.4,13.31,15.23,283.6
"2009-01-22 00:57:30",562071,12.62,318.5,2.072,0.427,13,105.9199,14.43,15.29,9.6,0,110.4,13.34,15.23,280.5
"2009-01-22 00:58:00",562072,12.98,325.2,8.68,1.192,15.29,105.912,14.41,15.35,9.71,0,110.4,13.31,15.21,287.2
"2009-01-22 00:58:30",562073,11.59,321.5,2.534,0.774,13.72,105.9061,14.39,15.36,9.74,0,110.4,13.31,15.19,283.5
"2009-01-22 00:59:00",562074,12.76,326.8,6.953,1.416,15.98,105.8976,14.37,15.36,9.74,0,110.4,13.31,15.17,288.8
"2009-01-22 00:59:30",562075,11.77,319.4,1.081,0.323,13.68,105.8875,14.34,15.26,9.74,0,110.4,13.34,15.15,281.4
"2009-01-22 01:00:00",562076,12.09,318.1,1.099,0.292,13.94,105.8863,14.34,15.24,9.81,0,110.4,13.34,15.14,280.1
"2009-01-22 01:00:30",562077,12.32,319.8,1.122,0.557,14.33,105.8863,14.34,15.22,9.81,0,110.4,13.34,15.14,281.8
"2009-01-22 01:01:00",562078,13.79,324.3,7.114,1.28,16.32,105.8863,14.34,15.32,9.88,0,110.4,13.31,15.14,286.3
"2009-01-22 01:01:30",562079,13.1,322.4,4.33,0.991,15.51,105.8863,14.34,15.36,9.92,0,110.4,13.31,15.14,284.4
"2009-01-22 01:02:00",562080,13.22,323.1,4.682,1.108,15.61,105.8863,14.34,15.23,9.76,0,110.4,13.3,15.14,285.1
"2009-01-22 01:02:30",562081,13.75,326.9,8.16,1.487,16.24,105.8863,14.34,15.38,9.96,0,110.3,13.3,15.14,288.9
"2009-01-22 01:03:00",562082,12.57,320,7.162,1.288,15.54,105.8863,14.34,15.36,9.95,0,110.4,13.3,15.14,282.0
"2009-01-22 01:03:30",562083,11.68,319.3,2.268,0.523,14.23,105.8863,14.34,15.35,9.9,0,110.3,13.3,15.14,281.3
"2009-01-22 01:04:00",562084,13.38,326.1,6.623,1.231,16.1,105.8863,14.34,15.29,9.79,0,110.3,13.3,15.14,288.1
"2009-01-22 01:04:30",562085,11.45,321.3,0.983,0.244,13.69,105.8863,14.34,15.28,9.82,0,110.3,13.33,15.14,283.3
"2009-01-22 01:05:00",562086,11.87,322.3,1.216,0.178,13.64,105.8863,14.34,15.23,9.74,0,110.4,13.33,15.14,284.3
"2009-01-22 01:05:30",562087,12.07,320.8,1.433,0.283,13.85,105.8863,14.34,15.22,9.73,0,110.3,13.33,15.14,282.8
"2009-01-22 01:06:00",562088,12.54,318.3,1.039,0.13,14.13,105.8863,14.34,15.23,9.71,0,110.4,13.33,15.14,280.3
"2009-01-22 01:06:30",562089,12.45,319.3,0.927,0.109,14.27,105.8863,14.34,15.23,9.68,0,110.3,13.34,15.14,281.3
"2009-01-22 01:07:00",562090,11.67,319.4,0.933,0.372,14.57,105.8863,14.34,15.22,9.66,0,110.4,13.34,15.14,281.4
"2009-01-22 01:07:30",562091,11.98,324.4,7.027,1.157,15.43,105.8863,14.34,15.24,9.64,0,110.3,13.31,15.14,286.4
"2009-01-22 01:08:00",562092,11.96,327.1,7.272,1.413,16.5,105.8863,14.34,15.37,9.77,0,110.4,13.31,15.14,289.1
"2009-01-22 01:08:30",562093,12.6,322.2,4.238,0.407,14.51,105.8863,14.34,15.33,9.78,0,110.3,13.31,15.14,284.2
"2009-01-22 01:09:00",562094,13.21,325.4,6.953,1.36,16.02,105.8863,14.34,15.31,9.87,0,110.3,13.31,15.14,287.4
"2009-01-22 01:09:30",562095,12.49,326.3,7.997,1.267,16.15,105.8863,14.34,15.4,9.95,0,110.3,13.31,15.14,288.3
"2009-01-22 01:10:00",562096,11.28,321,1.557,0.245,14.08,105.8863,14.34,15.23,9.8,0,110.3,13.35,15.14,283.0
"2009-01-22 01:10:30",562097,11.47,324.5,6.124,1.238,15.09,105.8863,14.34,15.24,9.83,0,110.3,13.31,15.14,286.5
"2009-01-22 01:11:00",562098,11.79,325.5,6.581,1.388,15.62,105.8858,14.34,15.4,10.06,0,110.3,13.31,15.14,287.5
"2009-01-22 01:11:30",562099,12.35,327.8,6.859,1.416,16.11,105.8835,14.33,15.45,10.14,0,110.3,13.31,15.14,289.8
"2009-01-22 01:12:00",562100,11.43,327.3,6.646,1.252,15.44,105.886,14.34,15.33,9.95,0,110.3,13.31,15.14,289.3
"2009-01-22 01:12:30",562101,10.64,323.3,1.007,0.32,13.52,105.8863,14.34,15.24,9.8,0,110.3,13.35,15.14,285.3
"2009-01-22 01:13:00",562102,10.87,323.6,1.524,0.2,13.61,105.8863,14.34,15.24,9.81,0,110.3,13.35,15.14,285.6
"2009-01-22 01:13:30",562103,11.48,327.1,4.731,0.824,14.83,105.8863,14.34,15.38,9.96,0,110.3,13.31,15.14,289.1
"2009-01-22 01:14:00",562104,11.79,327.8,5.303,1.213,15.12,105.8863,14.34,15.32,9.98,0,110.3,13.31,15.14,289.8
"2009-01-22 01:14:30",562105,12.99,336.2,6.994,1.217,17.08,105.8863,14.34,15.31,9.99,0,110.3,13.31,15.14,298.2
"2009-01-22 01:15:00",562106,11.59,330.3,7.357,1.131,15.56,105.886,14.34,15.38,10.04,0,110.3,13.31,15.14,292.3
"2009-01-22 01:15:30",562107,11.72,329.7,4.892,1.113,14.5,105.8858,14.34,15.23,9.83,0,110.3,13.31,15.14,291.7
"2009-01-22 01:16:00",562108,11.62,328.4,1.5,0.359,13.86,105.8863,14.34,15.23,9.81,0,110.3,13.35,15.14,290.4
"2009-01-22 01:16:30",562109,11.62,328.3,1.271,0.238,14.03,105.8863,14.34,15.23,9.86,0,110.3,13.35,15.14,290.3
"2009-01-22 01:17:00",562110,11.42,328.3,0.941,0.692,14.32,105.8863,14.34,15.23,9.88,0,110.3,13.35,15.14,290.3
"2009-01-22 01:17:30",562111,12.9,326.8,1.137,0.324,14.49,105.8863,14.34,15.24,9.9,0,110.3,13.35,15.14,288.8
"2009-01-22 01:18:00",562112,12.53,328,1.288,0.3,14.82,105.8863,14.34,15.24,9.92,0,110.3,13.35,15.14,290.0
"2009-01-22 01:18:30",562113,11.56,329.2,1.302,0.411,14.94,105.9035,14.39,15.26,9.81,0,110.3,13.35,15.19,291.2
"2009-01-22 01:19:00",562114,12.12,326,1.581,0.569,14.82,105.9199,14.43,15.28,9.83,0,110.3,13.35,15.23,288.0
"2009-01-22 01:19:30",562115,13.61,325.3,2.371,0.47,14.76,105.9202,14.43,15.29,10.03,0,110.3,13.35,15.23,287.3
"2009-01-22 01:20:00",562116,13.72,324.2,1.087,0.321,14.77,105.9202,14.43,15.3,10.15,0,110.3,13.35,15.23,286.2
"2009-01-22 01:20:30",562117,13.72,323.9,0.939,0.544,14.98,105.9202,14.43,15.3,10.24,0,110.3,13.31,15.23,285.9
"2009-01-22 01:21:00",562118,14.42,332.5,6.046,1.352,16.9,105.9202,14.43,15.44,10.44,0,110.3,13.31,15.23,294.5
"2009-01-22 01:21:30",562119,12.8,327.6,0.424,0.189,14.89,105.9202,14.43,15.39,10.41,0,110.3,13.35,15.23,289.6
"2009-01-22 01:22:00",562120,12.78,327,1.13,0.263,14.48,105.9202,14.43,15.33,10.38,0,110.3,13.35,15.23,289.0
"2009-01-22 01:22:30",562121,13.04,326.9,0.556,0.144,14.53,105.9202,14.43,15.33,10.49,0,110.3,13.35,15.23,288.9
"2009-01-22 01:23:00",562122,12.92,326.4,0.432,0.116,14.52,105.9202,14.43,15.34,10.57,0,110.3,13.35,15.23,288.4
"2009-01-22 01:23:30",562123,13.1,326.2,1.187,0.164,14.48,105.9202,14.43,15.38,10.62,0,110.3,13.35,15.23,288.2
"2009-01-22 01:24:00",562124,14.25,330.9,6.972,1.454,16.78,105.9202,14.43,15.44,10.7,0,110.3,13.32,15.23,292.9
"2009-01-22 01:24:30",562125,14.37,333.9,6.529,1.358,17.84,105.9202,14.43,15.56,10.82,0,110.3,13.32,15.23,295.9
"2009-01-22 01:25:00",562126,13.87,330,6.95,1.363,16.67,105.9162,14.42,15.53,10.79,0,110.3,13.32,15.22,292.0
"2009-01-22 01:25:30",562127,13.59,331.3,6.464,1.35,17.28,105.9001,14.38,15.52,10.8,0,110.3,13.31,15.18,293.3
"2009-01-22 01:26:00",562128,11.88,322.7,2.731,0.24,13.82,105.888,14.35,15.38,10.67,0,110.3,13.35,15.15,284.7
"2009-01-22 01:26:30",562129,13.81,328.3,6.666,1.301,14.72,105.8866,14.34,15.36,10.63,0,110.3,13.31,15.14,290.3
"2009-01-22 01:27:00",562130,12.65,328.9,7.234,1.033,15.45,105.8863,14.34,15.41,10.69,0,110.3,13.31,15.14,290.9
"2009-01-22 01:27:30",562131,12.81,322.3,1.136,0.234,13.21,105.8807,14.33,15.27,10.54,0,110.3,13.35,15.13,284.3
"2009-01-22 01:28:00",562132,12.72,323.3,1.799,0.368,13.38,105.8565,14.27,15.26,10.52,0,110.3,13.35,15.07,285.3
"2009-01-22 01:28:30",562133,13.64,330.7,6.974,1.312,15.5,105.8514,14.25,15.32,10.61,0,110.3,13.31,15.05,292.7
"2009-01-22 01:29:00",562134,14.24,330.7,6.968,1.298,15.97,105.8218,14.18,15.35,10.65,0,110.3,13.32,14.98,292.7
"2009-01-22 01:29:30",562135,13,325.3,3.23,0.751,14.09,105.8187,14.17,15.2,10.58,0,110.3,13.32,14.97,287.3
"2009-01-22 01:30:00",562136,13.46,331.2,7.068,1.346,16.85,105.819,14.17,15.42,10.83,0,110.3,13.31,14.97,293.2
"2009-01-22 01:30:30",562137,13.36,331.7,6.454,1.294,16.74,105.8181,14.17,15.23,10.67,0,110.3,13.31,14.97,293.7
"2009-01-22 01:31:00",562138,12.77,328.3,6.298,1.095,14.55,105.8097,14.15,15.26,10.7,0,110.3,13.31,14.95,290.3
"2009-01-22 01:31:30",562139,13.13,327,4.143,0.895,13.37,105.7857,14.08,15.2,10.68,0,110.3,13.31,14.89,289.0
"2009-01-22 01:32:00",562140,13.76,330,5.895,1.345,14.98,105.7854,14.08,15.13,10.62,0,110.3,13.31,14.88,292.0
"2009-01-22 01:32:30",562141,12.28,325.8,3.795,0.593,13.84,105.7679,14.04,15.12,10.65,0,110.3,13.32,14.84,287.8
"2009-01-22 01:33:00",562142,12.29,325.9,7.596,1.485,14.92,105.7522,14,15.07,10.65,0,110.3,13.31,14.80,287.9
"2009-01-22 01:33:30",562143,12.16,327.1,7.068,1.366,15.84,105.7528,14,15.14,10.69,0,110.3,13.31,14.80,289.1
"2009-01-22 01:34:00",562144,10.63,321.4,0.621,0.19,14.05,105.7618,14.02,15,10.57,0,110.3,13.35,14.82,283.4
"2009-01-22 01:34:30",562145,10.66,321,0.768,0.068,14.06,105.7842,14.08,15,10.54,0,110.3,13.35,14.88,283.0
"2009-01-22 01:35:00",562146,10.12,319.1,1.527,0.248,14.36,105.7893,14.09,15.01,10.52,0,110.3,13.35,14.89,281.1
"2009-01-22 01:35:30",562147,9.84,316.2,0.803,0.094,14.78,105.7996,14.12,15.03,10.49,0,110.3,13.35,14.92,278.2
"2009-01-22 01:36:00",562148,10.02,316.7,1.448,0.124,15.11,105.8246,14.18,15.05,10.45,0,110.3,13.35,14.99,278.7
"2009-01-22 01:36:30",562149,9.51,317.4,2.472,0.183,15.1,105.8595,14.27,15.1,10.45,0,110.3,13.35,15.07,279.4
"2009-01-22 01:37:00",562150,9.58,318.6,1.075,0.122,15.05,105.8792,14.32,15.13,10.38,0,110.3,13.35,15.13,280.6
"2009-01-22 01:37:30",562151,9.15,317.6,0.661,0.255,14.91,105.8965,14.37,15.17,10.31,0,110.3,13.35,15.17,279.6
"2009-01-22 01:38:00",562152,8.81,317.7,2.271,0.22,14.91,105.8965,14.37,15.2,10.26,0,110.3,13.35,15.17,279.7
"2009-01-22 01:38:30",562153,9.66,319.5,2.546,0.836,14.83,105.9069,14.39,15.23,10.24,0,110.3,13.35,15.20,281.5
"2009-01-22 01:39:00",562154,11.31,323.3,4.76,0.816,15.66,105.9027,14.38,15.29,10.33,0,110.3,13.32,15.19,285.3
"2009-01-22 01:39:30",562155,10.32,324.4,5.817,1.022,15.59,105.8974,14.37,15.37,10.42,0,110.4,13.32,15.17,286.4
"2009-01-22 01:40:00",562156,10.47,326.1,9.28,1.725,16.89,105.8982,14.37,15.31,10.31,0,110.4,13.32,15.17,288.1
"2009-01-22 01:40:30",562157,8.17,319.9,2.578,0.181,14.44,105.9132,14.41,15.27,10.2,0,110.4,13.36,15.21,281.9
"2009-01-22 01:41:00",562158,8.91,320.4,1.22,0.264,14.36,105.9221,14.43,15.28,10.2,0,110.3,13.36,15.24,282.4
"2009-01-22 01:41:30",562159,8.96,320.3,1.047,0.21,14.43,105.9307,14.46,15.3,10.27,0,110.3,13.36,15.26,282.3
"2009-01-22 01:42:00",562160,9.26,320.1,1.95,0.274,14.29,105.9284,14.45,15.3,10.33,0,110.4,13.36,15.25,282.1
"2009-01-22 01:42:30",562161,10.32,324.9,6.535,1.116,16.57,105.9143,14.41,15.46,10.48,0,110.3,13.32,15.22,286.9
"2009-01-22 01:43:00",562162,8.57,317.9,2.966,0.83,14.54,105.8991,14.37,15.37,10.41,0,110.4,13.32,15.18,279.9
"2009-01-22 01:43:30",562163,9.86,322.6,7.094,1.695,16.12,105.8983,14.37,15.38,10.41,0,110.4,13.32,15.17,284.6
"2009-01-22 01:44:00",562164,9.37,320.1,4.884,1.265,14.83,105.8995,14.38,15.38,10.42,0,110.3,13.32,15.18,282.1
"2009-01-22 01:44:30",562165,9.57,320.9,8.03,1.54,16.51,105.8983,14.37,15.4,10.42,0,110.4,13.32,15.17,282.9
"2009-01-22 01:45:00",562166,7.31,310.4,2.989,0.367,14.02,105.9018,14.38,15.29,10.34,0,110.4,13.36,15.18,272.4
"2009-01-22 01:45:30",562167,8.13,313,4.552,0.874,13.81,105.9109,14.4,15.3,10.34,0,110.3,13.36,15.21,275.0
"2009-01-22 01:46:00",562168,9.03,310.8,3.003,0.885,13.71,105.9025,14.38,15.3,10.32,0,110.4,13.32,15.19,272.8
"2009-01-22 01:46:30",562169,9.67,318.3,10.42,1.268,15.98,105.903,14.38,15.51,10.53,0,110.4,13.32,15.19,280.3
"2009-01-22 01:47:00",562170,9.45,318.1,9.75,1.706,16.62,105.9045,14.39,15.51,10.53,0,110.4,13.32,15.19,280.1
"2009-01-22 01:47:30",562171,9.06,318.1,5.624,1.415,15.46,105.9048,14.39,15.37,10.43,0,110.3,13.32,15.19,280.1
"2009-01-22 01:48:00",562172,7.579,312.6,2.342,0.479,13.38,105.9112,14.41,15.32,10.38,0,110.4,13.36,15.21,274.6
"2009-01-22 01:48:30",562173,8.64,313.6,3.563,0.456,13.41,105.9087,14.4,15.31,10.32,0,110.4,13.36,15.20,275.6